Location: Newark
(9.4667°S, 159.8167°E)
Time: 23:55:47
(UTC+00:00)

Courier 1B Rocket - Pass Details

Date: 24 November 2019
Orbit: 920 x 1202 km, 28.2° (Epoch: 07 December)

Event Time Altitude Azimuth Distance (km) Brightness Sun altitude
Rises 15:52:55 0° 239° (WSW) 3,964 - -39.4°
Reaches altitude 10° 15:57:09 10° 218° (SW) 2,945 - -38.6°
Exits shadow 15:59:08 14° 202° (SSW) 2,633 7.3 -38.2°
Maximum altitude 16:01:12 16° 183° (S) 2,492 7.4 -37.8°
Drops below altitude 10° 16:05:08 10° 148° (SSE) 2,823 8.1 -37.0°
Sets 16:09:03 0° 126° (SE) 3,714 9.0 -36.2°
